RH
73 65 67 96 90 97 91 86 94 74 65 66 57 36 19 12 9 10 12 14 14 14 18 34 45 48 47 43 41 42 46 50 54 56 61 64 62 63 65 68 71 76 74
71 69 60 95 91 96 95 100 64 87 66 70 65 56 32 18 11 10 11 15 16 16 18 28 42 49 50 51 50 49 50 55 58 58 63 69 72 72 70 72 75 79 80
97 88 90 96 96 95 95 85 67 79 79 80 78 67 55 31 18 11 10 12 16 16 18 24 36 50 59 62 61 61 59 60 62 67 64 73 75 76 76 78 80 84 85
95 100 99 97 93 93 91 95 90 98 88 77 74 76 65 54 30 18 12 10 11 15 16 16 23 36 52 62 68 67 69 69 71 71 74 75 78 80 83 86 87 88 84
98 96 86 96 93 90 94 95 96 97 98 96 79 74 74 62 49 27 19 14 10 10 12 15 16 18 26 38 50 60 67 72 74 78 79 80 80 81 81 82 80 76 72
100 97 96 99 80 85 93 95 94 95 93 96 97 94 84 73 58 45 26 20 16 12 11 11 14 16 17 23 32 38 41 56 57 70 73 74 71 69 69 66 68 65 60
92 59 64 66 57 62 83 75 87 95 95 95 98 98 97 93 78 61 45 26 19 15 14 13 12 12 14 15 16 17 20 25 31 50 55 61 60 59 44 54 49 34 37
48 31 21 27 23 28 44 77 94 92 92 97 96 96 96 98 97 88 70 50 30 21 16 15 15 16 14 14 14 14 15 17 18 20 23 25 23 23 22 20 20 20 25
35 46 36 29 32 22 30 51 54 74 85 91 94 96 97 97 97 97 90 75 67 48 35 26 20 17 16 17 17 16 16 15 15 16 18 17 19 20 26 28 36 68 58
21 23 25 35 38 43 59 47 50 58 42 67 60 54 89 88 95 96 97 98 92 89 87 73 56 42 49 50 24 28 23 23 25 31 35 30 52 57 88 97 96 47 45
38 38 37 32 23 18 22 32 41 55 71 65 64 60 86 94 64 81 98 93 95 97 98 93 91 94 96 87 88 95 95 69 87 83 46 38 44 55 69 82 96 98 97
40 36 34 35 35 37 41 48 42 20 16 19 26 28 38 82 100 100 100 100 100 95 93 96 94 94 97 97 96 97 100 98 77 70 95 90 99 96 99 98 94 98 98
55 56 55 53 52 50 51 49 40 36 43 55 45 24 18 20 22 56 93 96 98 100 98 99 90 100 100 100 100 98 99 98 97 96 97 100 81 97 99 97 99 99 99
33 35 35 37 38 37 35 36 37 37 36 33 37 52 64 55 28 18 18 19 20 24 47 88 99 97 98 100 99 98 96 98 96 98 98 98 98 99 98 96 98 99 98
27 31 36 36 34 33 34 36 35 32 30 30 31 32 34 49 60 66 60 37 18 17 17 18 26 34 56 93 98 97 98 99 100 98 98 99 98 100 95 96 99 92 97
39 37 35 37 37 37 37 36 34 32 30 30 28 26 26 27 29 34 45 57 61 58 45 23 18 17 16 17 17 19 18 19 18 30 80 37 34 92 97 100 98 96 96
37 37 37 36 37 38 41 42 40 37 37 37 33 30 28 28 26 25 26 28 32 33 38 51 58 58 52 51 44 32 21 18 17 16 16 17 17 18 25 59 44 24 28
37 37 36 37 36 38 41 44 46 44 40 36 37 38 36 32 30 29 28 26 26 25 26 28 31 42 56 64 72 72 69 66 52 31 26 23 17 15 14 14 13 13 13
47 44 42 41 42 43 43 43 42 42 42 40 40 38 36 33 31 30 30 30 28 27 27 26 26 26 27 32 37 39 40 53 66 72 72 70 69 65 58 48 40 24 20
39 40 41 39 38 35 32 28 26 24 20 16 14 14 17 21 24 25 23 23 25 27 27 26 27 27 26 25 26 27 26 28 33 45 57 69 80 91 87 85 76 56 38
51 44 36 29 26 22 19 16 15 14 12 12 11 10 10 10 10 11 11 12 14 16 17 20 22 22 23 26 27 27 25 26 28 26 30 45 68 74 81 100 100 78 58
26 20 14 12 12 11 10 9 9 9 8 8 8 8 8 8 7 7 8 9 9 9 10 10 11 12 14 17 19 21 23 23 24 24 24 23 30 68 81 91 100 100 87
10 9 9 8 8 6 6 5 6 6 7 8 10 10 11 8 6 5 5 4 5 5 6 7 9 9 9 8 9 10 13 16 19 23 25 24 19 28 61 87 98 100 95
7 6 6 7 12 22 34 34 38 44 49 47 44 38 26 24 20 12 7 6 5 4 3 3 3 5 7 9 9 8 8 8 11 14 19 22 21 18 19 45 100 100 100
9 16 30 46 54 73 90 100 100 100 83 67 52 40 36 36 35 25 24 24 25 18 7 5 4 3 2 4 6 7 8 8 8 8 10 16 18 19 17 23 85 100 100
58 78 90 90 99 100 100 100 100 90 80 66 52 42 37 35 36 38 34 44 48 46 33 16 12 13 9 8 4 4 5 6 7 7 7 8 15 16 15 14 43 100 100
Wind_Speed
53 66 77 39 78 38 65 55 53 55 49 45 44 44 48 51 50 50 49 47 46 44 42 40 39 37 36 36 36 34 33 32 32 33 34 33 32 31 31 31 32 33 34
46 62 76 58 45 64 43 50 64 60 56 52 49 47 49 53 55 54 52 51 49 48 46 44 43 42 41 40 38 37 37 36 38 39 40 38 37 36 36 37 38 38 40
42 54 60 52 33 33 33 55 54 53 60 56 55 51 48 50 54 54 53 52 52 52 51 49 48 46 44 42 41 40 40 41 41 41 43 41 40 41 41 43 43 44 46
39 44 49 55 61 45 46 53 53 45 48 62 59 57 52 49 52 56 56 57 57 55 54 53 51 50 48 46 46 45 45 45 44 46 45 46 46 47 48 49 50 52 52
23 26 34 43 55 46 48 45 33 41 37 49 67 65 57 53 53 56 58 59 59 58 58 57 55 54 52 52 51 51 51 51 52 51 53 53 53 54 54 55 57 58 58
15 5 9 13 23 30 47 43 44 37 42 40 46 62 61 60 57 55 58 60 61 61 60 59 58 58 57 56 56 56 57 57 58 58 57 57 58 59 59 61 61 61 61
5 11 10 2 11 22 30 38 44 31 46 29 32 50 65 69 64 64 61 61 62 62 62 62 62 62 61 61 61 61 61 61 62 61 62 62 62 62 64 64 63 63 65
6 2 3 8 7 10 13 16 22 23 20 20 30 34 52 57 63 69 71 66 65 65 65 65 64 63 63 63 63 64 65 65 64 64 64 65 66 66 65 64 63 62 63
3 6 7 9 10 12 12 17 22 22 24 25 22 27 33 42 57 70 69 66 65 66 65 65 64 65 66 66 66 67 67 67 67 67 66 67 66 66 63 62 63 70 72
8 10 13 17 19 20 21 25 25 26 32 32 31 33 33 33 35 31 51 66 70 70 67 67 67 65 67 69 70 68 70 70 68 67 68 67 71 74 81 76 72 66 66
10 10 12 15 18 23 28 30 31 33 36 38 38 40 39 37 42 40 38 39 43 58 67 74 75 70 71 72 75 74 72 75 74 71 74 72 73 75 75 72 76 78 79
13 17 18 19 20 23 26 27 29 31 37 37 40 43 43 46 45 46 48 49 46 46 48 52 45 53 63 65 71 73 71 76 79 80 73 75 69 60 65 67 60 62 65
23 23 24 25 27 29 30 31 33 35 35 37 38 41 45 48 47 52 54 53 53 55 54 53 61 59 60 58 62 62 63 60 62 58 63 60 57 55 64 64 58 59 57
31 32 33 33 32 33 33 35 36 37 39 40 42 44 44 46 48 53 57 57 58 57 60 64 63 62 66 64 69 66 67 67 66 64 65 55 59 61 62 58 59 62 61
42 44 43 42 42 43 43 42 42 43 44 46 46 47 48 50 51 51 53 55 57 59 61 61 62 64 71 68 68 69 69 68 66 73 68 69 55 51 60 62 57 62 57
48 50 53 54 53 52 51 51 51 50 50 51 53 55 54 53 55 56 56 56 56 58 60 61 62 64 66 66 67 68 66 65 68 63 69 70 71 65 64 57 55 49 47
55 57 59 60 61 62 62 62 61 60 60 59 59 59 59 60 61 61 60 61 62 60 59 60 62 64 64 64 63 64 63 65 66 69 68 68 68 69 71 76 72 73 70
61 64 66 68 69 70 70 71 71 70 68 68 66 65 65 65 65 64 66 66 65 64 63 63 63 62 63 64 64 64 63 64 63 62 61 62 64 68 69 69 66 62 61
67 69 70 71 72 75 77 78 78 79 77 75 72 72 71 70 69 69 69 69 70 69 68 66 64 65 64 66 67 68 65 63 62 63 63 63 62 61 61 61 57 55 53
73 76 78 80 81 81 82 84 85 85 83 80 76 75 74 74 73 74 73 72 72 72 71 70 69 68 67 67 67 67 65 64 65 64 63 62 62 61 61 61 57 54 53
77 78 79 80 81 83 84 87 90 92 94 95 95 94 87 80 80 79 77 76 76 75 74 72 72 72 71 71 70 70 68 66 65 63 61 62 61 61 60 58 58 52 53
81 82 84 86 88 89 90 90 92 93 95 96 96 98 99 100 99 90 87 86 84 81 80 78 76 74 74 74 72 73 72 70 68 66 64 62 61 60 59 58 57 54 54
84 85 86 86 87 88 88 87 87 87 87 87 84 83 81 85 88 90 92 90 88 88 85 85 84 82 80 78 77 76 75 73 70 68 68 68 63 60 58 58 57 55 56
84 82 81 79 75 71 66 64 59 57 56 55 56 57 58 60 63 61 56 61 60 64 74 79 83 85 86 87 85 82 79 76 72 69 70 71 70 64 61 58 54 54 53
75 69 64 57 52 49 48 47 43 42 46 48 51 52 52 47 47 48 45 42 43 45 49 57 64 70 78 85 89 89 86 84 79 73 74 74 72 69 64 59 54 52 51
54 50 47 46 44 43 41 39 37 39 42 43 44 44 45 46 43 43 40 44 38 39 40 42 48 52 58 64 72 80 85 86 84 79 76 75 73 71 66 59 52 50 51
Wind_Direction
185 188 189 212 201 210 208 214 221 211 215 220 224 227 225 224 222 222 223 226 227 229 231 231 233 233 234 235 235 234 234 236 236 239 241 243 249 253 257 258 264 270 276
193 193 194 204 207 226 221 203 221 217 216 219 224 226 230 227 225 224 224 226 228 230 232 233 233 234 235 236 238 239 238 237 237 237 240 243 248 253 255 260 265 269 274
187 199 199 217 224 235 198 212 217 227 224 224 227 228 231 235 233 230 229 229 230 232 233 234 234 235 235 237 239 242 243 243 244 242 246 250 253 256 260 264 268 270 274
185 197 207 223 225 234 213 217 217 223 230 230 232 233 231 234 236 234 234 234 234 235 236 237 239 239 239 239 240 242 244 246 247 249 252 254 257 260 264 267 270 273 276
171 215 221 223 224 246 233 245 232 219 222 234 232 230 232 232 236 238 237 237 238 239 240 241 243 244 244 244 244 245 247 247 249 251 253 257 260 263 266 269 273 276 279
104 107 214 227 259 243 238 249 246 253 243 241 229 231 231 235 233 236 239 238 239 240 241 243 244 245 246 247 247 248 250 251 253 254 257 261 265 267 271 272 275 278 281
84 72 85 209 272 255 264 261 256 256 242 259 245 235 232 233 236 236 235 237 239 241 241 242 243 245 246 247 249 251 253 254 256 257 259 261 263 265 268 271 273 275 278
136 149 294 260 283 267 288 290 282 272 268 254 241 242 232 231 236 241 241 238 237 238 241 242 243 245 247 249 250 252 254 255 257 259 261 262 263 265 267 269 272 273 277
269 253 254 251 239 245 259 275 276 281 276 273 263 244 234 233 238 236 240 241 241 242 243 244 245 247 248 249 250 252 253 255 256 257 260 262 265 267 268 269 271 276 276
301 278 266 265 258 248 238 229 237 248 263 257 269 271 272 270 276 262 245 243 243 244 244 245 245 248 249 251 252 254 256 257 258 259 262 264 265 266 269 269 269 270 272
333 319 310 295 285 277 271 268 264 252 247 247 246 246 241 249 260 260 256 258 256 255 240 245 246 247 248 249 250 254 256 258 259 260 262 264 261 263 268 271 270 270 272
315 314 308 304 298 291 288 284 277 273 271 265 259 255 253 245 241 243 243 247 248 254 252 246 259 259 253 253 255 255 262 258 256 256 264 264 273 270 275 273 273 278 275
300 293 290 290 290 290 290 289 287 282 276 271 266 260 257 254 254 250 252 251 248 246 242 241 248 243 243 247 245 255 254 260 266 260 267 264 265 269 270 269 268 273 275
300 295 292 293 291 288 284 282 280 277 277 276 273 268 264 262 258 254 252 251 253 254 254 253 253 252 249 253 251 257 256 250 259 255 260 267 264 264 263 263 265 268 271
301 301 299 295 291 289 286 281 278 277 276 275 271 269 267 263 260 259 258 256 256 256 256 254 254 255 260 259 256 256 255 249 253 252 252 260 263 266 273 276 268 273 271
298 296 296 296 292 288 284 283 280 276 272 271 271 271 269 266 265 262 260 258 257 256 254 255 255 255 255 259 262 262 262 262 267 267 266 268 273 270 267 263 274 266 274
292 293 292 291 289 288 288 286 283 280 278 274 272 270 269 269 269 267 264 262 260 258 257 257 256 256 256 258 258 259 260 261 262 264 264 264 267 268 270 267 276 273 277
287 288 288 289 288 288 286 285 285 283 281 278 276 272 270 268 267 266 267 266 264 262 261 260 258 257 258 258 259 260 261 261 261 261 262 264 264 265 267 269 274 277 280
290 289 287 285 284 284 284 284 284 283 283 280 276 274 272 269 267 266 265 263 262 262 261 260 259 260 259 259 259 259 259 260 261 262 263 263 264 267 269 271 274 277 278
285 285 286 286 285 284 284 284 284 283 282 282 280 278 275 272 268 266 264 261 261 261 260 260 259 258 258 259 259 260 260 260 259 259 261 263 264 265 266 269 270 272 275
288 287 286 284 283 282 282 282 282 284 285 286 286 285 280 274 271 268 266 263 261 258 258 258 258 257 257 256 258 259 259 260 261 261 259 260 260 262 263 264 266 267 269
288 287 287 286 284 283 283 283 283 282 283 283 283 283 281 280 279 275 270 265 261 260 259 257 256 256 257 256 255 256 256 256 257 259 261 261 261 261 261 262 262 262 264
288 288 288 288 287 286 284 282 280 279 279 280 281 283 285 285 284 282 283 277 268 263 260 257 255 254 255 255 255 254 254 255 254 255 259 261 260 259 259 258 260 261 262
289 289 288 286 286 286 287 286 285 283 283 283 284 286 289 290 292 292 286 282 279 272 268 263 256 252 250 251 253 253 253 253 252 252 253 257 260 259 259 259 258 259 262
289 289 288 288 287 284 282 282 279 280 281 283 286 289 287 288 296 295 286 281 276 271 261 255 251 249 248 246 246 248 250 251 251 249 249 250 252 255 255 256 256 257 259
290 290 288 286 284 282 278 277 282 282 283 284 285 289 289 284 295 297 284 277 274 273 270 260 251 252 250 245 245 246 246 245 246 246 246 248 248 250 251 251 252 253 252